Temperature
13 13 13 13 12 12 12 12 12 12 12 11 11 11 11 11 11 11 11 10 10 10 10 10 9 9 9 9 9 9 9 9 9 9 9 8 8 8 8 7 7 7 7
13 13 13 12 12 12 12 12 12 12 11 11 11 11 11 11 11 11 10 10 10 10 10 10 9 9 9 9 9 9 9 8 8 8 8 8 8 7 7 7 7 6 6
12 12 12 12 12 12 12 12 12 11 11 11 11 11 10 10 10 10 10 10 10 10 10 10 9 9 9 9 9 8 8 8 8 8 8 7 7 7 7 6 6 6 6
12 12 12 12 12 12 12 11 11 11 11 11 10 10 10 10 10 10 10 10 10 10 10 9 9 9 9 9 8 8 8 8 7 7 7 7 7 7 6 6 6 6 5
12 12 12 12 12 12 11 11 11 11 11 11 10 10 10 10 10 10 10 10 10 9 9 9 9 9 9 9 8 8 8 7 7 7 7 7 7 6 6 6 5 5 5
11 11 11 11 11 11 11 11 11 11 11 10 10 10 10 10 10 10 10 10 10 9 9 9 9 9 9 9 8 8 8 7 7 7 6 6 6 6 6 5 5 5 5
11 11 11 11 11 11 11 11 11 11 10 10 10 10 10 10 9 9 9 9 9 9 9 9 9 9 9 9 8 8 8 7 7 6 6 6 6 5 5 5 5 4 4
11 11 11 11 11 11 11 11 11 10 10 10 10 9 9 9 9 9 9 9 9 9 9 9 9 9 9 8 8 8 8 7 7 6 6 6 5 5 5 4 4 4 4
11 11 11 11 11 11 11 11 11 11 10 10 10 10 9 9 9 9 9 9 9 9 9 9 9 9 9 8 8 8 7 7 7 6 6 5 5 5 4 4 4 4 3
11 11 11 11 11 11 11 11 11 11 11 10 10 10 10 10 10 9 9 9 9 9 9 9 9 9 8 8 8 8 7 7 6 6 5 5 5 4 4 3 3 3 3
10 11 11 11 11 11 11 11 10 10 11 10 10 10 10 10 10 10 9 9 9 9 9 9 9 8 8 8 8 8 7 7 6 6 5 5 5 4 4 3 3 3 3
10 10 11 11 11 10 10 11 10 10 11 11 10 10 10 10 10 10 10 10 9 9 9 9 8 8 8 8 8 7 7 7 6 5 5 5 4 4 3 3 3 2 2
10 10 10 10 11 11 11 11 10 10 10 11 11 10 10 10 10 10 10 10 9 9 9 9 8 8 8 8 7 7 7 6 6 5 5 4 4 3 3 3 2 2 2
10 10 10 10 11 11 11 11 11 11 10 10 10 10 10 10 10 10 10 10 9 9 8 9 8 8 8 8 7 7 6 6 6 5 5 4 4 3 3 2 2 2 1
10 10 10 10 10 10 11 11 11 11 10 10 10 10 10 10 10 10 10 10 9 8 8 9 8 8 8 7 7 7 6 6 5 5 4 4 3 3 2 2 1 1 1
10 10 10 10 10 10 10 10 11 10 10 10 10 10 10 10 9 9 9 9 9 9 9 9 8 8 8 7 7 6 6 5 5 5 4 3 3 2 2 1 1 1 0
10 10 10 10 10 10 10 10 10 10 10 10 10 9 9 10 9 9 9 9 9 8 8 8 8 7 7 7 6 6 6 5 5 4 4 3 3 2 2 1 1 0 -0
9 10 10 10 10 10 10 10 10 10 10 10 10 9 10 9 9 9 9 9 8 8 8 8 8 7 7 6 6 6 5 5 4 4 3 3 2 2 1 1 0 -0 -1
9 10 9 10 10 10 10 10 10 10 10 10 10 10 10 9 9 9 9 8 8 8 8 7 7 7 6 6 6 5 5 4 4 4 3 3 2 1 1 0 -0 -1 -1
9 9 9 10 10 10 10 10 10 10 10 10 10 10 10 9 9 9 9 8 8 8 7 7 7 6 6 6 5 5 5 4 4 3 3 2 2 1 1 0 -0 -1 -1
9 9 9 9 9 10 10 10 10 10 10 10 9 9 9 9 9 9 8 8 8 7 7 7 6 6 6 6 5 5 5 4 3 3 2 2 1 1 0 -0 -1 -1 -2
8 9 9 9 9 9 10 10 10 10 10 9 9 9 9 9 9 9 8 8 8 7 7 7 6 6 6 6 5 5 4 3 3 2 2 2 1 0 -0 -0 -1 -2 -3
8 8 8 9 9 9 9 10 10 10 9 9 9 9 9 9 8 8 8 8 7 7 7 7 6 6 6 5 5 4 4 3 3 2 2 2 1 0 -1 -1 -2 -2 -3
7 7 8 8 9 9 9 9 9 9 9 9 9 9 8 8 8 8 8 7 7 7 7 6 6 6 5 5 4 4 3 3 2 2 1 1 1 -0 -1 -1 -2 -2 -3
7 7 7 8 8 8 9 9 9 9 9 9 8 8 8 8 8 8 7 7 7 7 6 6 6 5 5 4 4 4 3 2 2 1 1 -0 -0 -0 -1 -1 -2 -2 -3
6 7 7 7 7 8 8 8 8 8 8 8 8 8 8 8 8 8 7 7 7 6 6 6 5 5 4 4 4 3 3 2 1 1 0 -0 -1 -2 -2 -2 -2 -3 -3
Wind_Speed
9 9 9 10 10 11 10 8 7 7 6 6 7 8 8 9 10 9 8 9 9 9 8 8 7 6 5 4 4 3 3 4 5 5 6 7 8 10 11 11 12 13 14
10 10 9 9 9 11 11 10 9 7 6 5 5 7 8 9 9 9 9 9 9 9 8 8 7 5 4 3 2 2 2 3 4 5 6 7 8 9 11 12 13 13 14
13 11 10 9 10 12 12 10 8 6 6 5 5 6 7 8 8 9 9 8 8 8 8 7 6 5 4 3 1 0 1 3 4 5 6 7 9 10 11 12 13 14 14
16 11 9 10 12 11 10 9 8 6 6 5 5 4 5 6 7 8 9 9 8 7 7 7 7 6 4 3 2 1 2 3 4 6 7 8 9 10 11 12 13 14 15
16 13 9 10 13 10 8 10 8 7 7 6 5 4 4 4 5 6 6 8 9 9 8 7 7 6 5 4 3 2 3 4 5 6 7 8 9 11 12 13 14 15 16
15 13 10 10 12 10 9 9 9 7 7 7 5 4 3 3 4 5 6 7 8 9 9 8 7 6 5 4 4 4 4 5 6 7 7 8 10 11 12 13 14 15 16
14 13 10 10 10 11 11 12 8 9 7 6 5 3 1 0 3 4 4 5 6 8 9 8 8 6 5 4 4 4 5 6 6 7 7 9 10 11 12 13 14 15 16
14 13 12 11 10 10 12 12 10 8 6 7 6 5 2 1 2 3 4 5 5 6 6 8 8 7 6 4 4 4 5 6 6 7 8 9 10 11 12 13 14 15 15
14 13 13 12 11 11 12 13 13 10 9 7 7 6 5 5 2 2 3 4 5 4 4 6 7 8 7 6 4 5 5 6 6 7 8 9 10 11 12 13 14 15 16
13 14 13 13 13 11 12 14 13 10 12 9 6 3 3 5 4 2 2 3 4 5 5 4 5 7 7 6 6 5 5 5 6 7 8 9 10 11 12 13 14 15 16
12 14 14 13 12 11 13 14 13 12 10 10 8 5 3 2 3 4 3 3 2 3 4 4 4 5 7 7 6 6 5 5 5 6 7 8 9 10 12 13 14 15 16
10 13 13 13 13 11 13 14 15 14 12 10 9 6 6 5 5 4 4 4 3 2 3 3 4 4 6 7 7 6 5 5 5 5 5 7 8 10 11 12 13 14 15
9 13 12 13 13 13 13 13 14 14 13 13 11 8 6 5 4 4 4 3 2 1 2 2 3 4 6 6 6 6 5 5 4 4 4 5 7 9 10 11 12 13 14
10 12 12 13 13 14 14 14 13 13 12 13 12 10 7 6 5 4 5 5 3 1 2 3 1 3 5 6 6 6 5 5 4 3 4 5 6 7 8 10 11 12 13
9 12 13 13 13 14 14 15 13 14 13 12 11 10 8 6 5 5 5 5 6 5 5 4 2 2 3 5 6 6 5 5 4 3 3 4 5 6 7 8 10 11 12
11 12 13 13 13 14 15 14 13 13 13 12 10 11 9 6 6 5 5 4 4 5 5 4 3 2 3 3 5 5 5 4 3 3 3 4 5 6 7 8 9 10 11
12 13 13 13 13 14 14 14 14 14 14 13 12 12 11 9 7 6 5 5 4 4 4 2 1 1 2 3 2 2 3 3 2 3 3 3 4 5 6 7 8 10 11
12 13 13 13 14 14 15 16 16 15 15 15 14 13 12 9 9 7 6 6 5 4 4 4 2 2 2 3 2 1 1 1 1 2 3 3 5 5 6 7 8 9 9
9 11 12 13 13 14 14 15 15 15 15 15 14 14 13 12 10 8 8 7 5 4 4 4 3 2 1 1 2 1 0 1 0 1 2 3 5 5 6 6 7 8 9
8 9 11 12 12 13 14 14 14 14 13 13 12 12 12 13 12 11 9 8 7 6 4 4 3 2 2 1 2 1 0 0 1 1 2 3 4 4 5 6 6 7 8
6 7 9 10 11 11 12 13 13 13 13 12 11 11 11 13 14 12 9 9 9 7 5 5 4 3 3 2 3 2 2 1 1 0 2 2 2 2 3 5 6 7 8
4 5 7 9 10 9 13 15 13 12 13 13 12 11 11 12 14 15 15 14 13 10 9 7 5 5 5 4 3 3 2 1 2 1 1 2 1 2 3 3 5 7 8
3 4 5 6 9 10 13 16 15 12 12 12 12 11 9 9 12 10 11 11 11 11 12 10 8 7 7 7 6 4 3 2 3 2 0 2 1 2 3 3 5 6 8
4 5 5 5 6 10 14 15 14 11 10 11 11 11 11 10 10 11 9 8 6 6 8 7 7 7 6 7 7 6 5 2 1 0 1 1 1 2 3 4 4 6 8
3 3 4 5 5 8 12 14 13 8 9 10 10 10 11 11 15 16 12 9 7 4 5 8 8 7 8 9 9 6 4 3 1 1 0 0 1 2 2 2 4 6 8
3 2 3 3 4 6 10 12 13 8 9 8 8 9 13 13 17 18 13 11 10 7 7 7 6 6 6 8 9 6 6 3 2 2 1 1 0 1 2 2 3 4 6
Wind_Direction
173 170 169 164 165 162 160 160 161 165 165 160 156 149 150 153 157 158 161 160 159 159 156 155 151 147 140 126 109 93 69 47 31 20 11 5 1 356 353 351 348 346 343
176 176 174 170 171 171 167 167 168 168 168 162 157 154 156 159 161 163 163 165 166 167 166 164 161 159 153 143 124 95 54 18 7 0 355 354 352 349 347 346 343 342 340
179 182 177 177 176 174 170 166 166 163 161 160 160 157 157 164 164 167 166 165 170 175 176 173 173 172 172 169 159 117 357 344 342 343 343 344 343 342 341 341 340 338 337
183 184 182 182 178 173 171 167 166 162 162 161 162 164 160 163 169 173 172 172 174 177 181 181 182 182 186 197 213 264 309 320 327 330 334 335 335 336 336 336 335 334 333
186 185 187 186 177 173 175 174 169 164 164 164 165 165 166 166 172 174 175 179 182 183 184 187 189 195 201 214 234 265 292 308 316 321 326 329 330 330 330 331 331 331 330
189 186 185 186 179 174 176 173 167 165 163 162 155 151 166 174 173 178 183 183 187 189 188 185 187 198 207 219 242 262 283 296 305 313 321 325 326 326 327 328 329 329 330
190 190 187 185 185 181 178 172 165 164 163 152 131 115 34 216 193 192 183 178 186 190 188 189 188 190 203 217 235 258 280 292 302 311 318 320 322 323 324 326 329 331 331
192 193 187 185 187 184 177 176 165 162 165 162 150 142 146 286 257 209 191 187 187 181 185 190 186 187 192 204 231 250 274 290 301 310 315 318 320 323 325 329 332 333 334
195 195 189 187 186 187 184 181 175 166 168 173 166 156 162 199 209 245 211 195 186 180 184 183 186 190 193 200 221 243 267 281 295 305 311 316 320 323 327 330 332 332 333
197 195 191 190 188 191 187 184 180 174 166 173 179 178 163 150 157 190 242 212 194 192 193 187 184 189 194 199 213 230 250 272 289 300 309 315 320 324 326 329 330 332 333
201 194 193 192 191 194 191 184 180 180 177 175 175 166 156 143 141 155 194 207 209 212 199 189 184 190 197 200 208 221 237 258 279 293 305 314 320 324 326 329 331 333 334
204 197 195 195 191 194 193 187 184 183 184 179 176 173 167 165 175 166 181 194 202 216 199 194 193 196 197 197 205 212 224 243 263 280 299 311 318 323 326 329 331 334 334
208 199 196 198 194 195 192 188 185 186 185 182 183 186 184 182 160 157 160 171 184 208 192 209 206 194 192 189 201 205 218 232 247 264 290 308 317 323 326 329 331 333 335
208 198 197 201 199 195 191 188 187 188 187 188 187 185 186 188 173 167 160 157 163 198 216 225 202 198 192 188 197 192 209 226 234 257 286 306 315 322 327 330 332 334 336
208 200 200 204 201 197 193 188 190 188 187 190 189 187 189 190 180 177 166 164 167 191 220 216 203 202 186 184 191 186 200 216 234 254 282 302 312 322 328 330 332 334 337
204 200 200 203 203 198 194 190 190 186 186 190 188 187 192 192 182 176 176 174 174 181 207 203 190 175 163 169 188 183 198 212 231 254 289 302 312 321 324 326 329 333 337
203 204 201 202 203 199 193 191 192 185 188 191 190 190 194 186 185 184 175 175 181 174 197 204 154 139 148 163 149 169 186 197 225 252 290 305 315 318 322 326 330 334 337
207 206 202 202 203 198 193 191 190 189 190 193 194 192 193 187 187 183 181 184 186 182 181 190 180 160 168 177 166 172 156 182 210 249 292 309 318 317 321 324 331 337 340
211 206 204 204 203 197 192 193 192 190 192 195 194 193 191 186 191 188 184 187 186 178 171 169 176 160 155 144 136 134 108 61 275 270 292 309 315 317 322 327 335 342 345
217 209 209 205 202 193 190 192 191 189 189 193 194 193 191 191 192 186 188 188 179 174 166 158 163 155 155 134 136 158 216 308 305 334 323 315 318 328 337 339 342 347 348
226 218 215 206 197 190 190 186 187 185 186 188 191 192 192 190 187 186 186 185 179 180 173 174 174 167 172 165 185 180 198 276 286 323 318 309 329 338 337 339 342 344 348
230 223 221 206 192 194 189 183 183 185 185 187 189 190 191 189 186 184 182 181 180 183 188 188 193 193 200 193 172 168 157 149 249 252 268 282 329 306 321 322 333 344 348
245 234 226 208 197 193 184 182 180 187 187 188 189 189 188 187 183 184 179 177 182 181 184 188 192 201 193 189 172 170 181 189 212 211 227 252 278 281 295 305 327 343 346
236 235 218 212 202 192 182 179 177 185 186 187 188 187 184 182 181 174 170 175 184 189 187 186 190 192 186 177 175 172 168 132 80 107 99 215 272 287 301 297 310 340 346
250 230 209 205 203 190 179 176 174 182 185 187 186 185 183 183 176 167 167 170 165 163 150 150 147 147 148 151 143 126 127 121 160 207 132 123 287 319 303 281 301 330 341
249 226 221 212 203 193 179 174 172 181 184 182 182 185 183 181 175 170 174 174 174 171 150 136 129 129 132 142 143 149 161 154 145 197 202 132 167 1 317 287 296 314 330
Height
1484 1487 1489 1492 1495 1497 1500 1504 1507 1510 1512 1514 1516 1518 1519 1521 1523 1524 1525 1526 1526 1527 1527 1528 1528 1528 1528 1527 1526 1525 1524 1523 1522 1521 1519 1518 1516 1514 1512 1509 1507 1504 1502
1480 1483 1486 1488 1491 1494 1497 1501 1505 1508 1510 1513 1514 1516 1518 1520 1521 1522 1524 1524 1525 1526 1526 1527 1527 1527 1527 1526 1525 1524 1523 1522 1521 1520 1518 1516 1514 1512 1510 1507 1505 1502 1499
1477 1479 1482 1484 1488 1491 1495 1498 1502 1506 1508 1511 1513 1515 1516 1518 1520 1521 1522 1523 1524 1525 1525 1526 1526 1526 1525 1525 1524 1523 1522 1521 1520 1518 1516 1514 1512 1510 1508 1505 1503 1500 1497
1472 1476 1478 1480 1484 1488 1491 1495 1498 1502 1505 1508 1511 1513 1515 1516 1518 1519 1520 1521 1523 1523 1524 1524 1524 1524 1524 1524 1523 1522 1521 1520 1518 1516 1515 1513 1510 1508 1506 1503 1500 1497 1495
1468 1471 1474 1476 1480 1483 1487 1491 1495 1498 1501 1505 1509 1511 1513 1514 1516 1517 1518 1520 1521 1521 1522 1523 1523 1523 1523 1522 1521 1520 1519 1518 1516 1515 1513 1511 1508 1506 1503 1501 1498 1495 1492
1463 1466 1469 1472 1475 1479 1483 1487 1491 1495 1498 1502 1506 1509 1511 1513 1514 1515 1516 1517 1518 1519 1520 1521 1521 1521 1521 1520 1519 1518 1517 1516 1514 1512 1510 1508 1506 1503 1501 1498 1495 1492 1489
1458 1461 1464 1467 1470 1473 1477 1482 1486 1490 1495 1499 1503 1506 1509 1511 1512 1513 1514 1514 1515 1516 1517 1518 1518 1519 1518 1518 1517 1516 1515 1514 1512 1510 1508 1506 1503 1501 1498 1496 1492 1489 1486
1452 1455 1458 1461 1465 1469 1472 1477 1481 1485 1490 1494 1497 1502 1505 1508 1508 1509 1510 1511 1512 1513 1514 1515 1515 1516 1515 1515 1514 1513 1512 1511 1509 1508 1505 1503 1501 1498 1496 1493 1489 1486 1483
1447 1450 1453 1456 1460 1464 1466 1471 1476 1479 1483 1489 1493 1496 1499 1500 1503 1505 1506 1508 1509 1510 1510 1511 1512 1512 1512 1512 1511 1511 1509 1508 1506 1505 1502 1500 1498 1495 1493 1489 1486 1483 1479
1441 1444 1447 1451 1455 1459 1462 1466 1471 1475 1478 1482 1487 1491 1493 1494 1497 1500 1502 1504 1505 1506 1507 1507 1508 1509 1509 1509 1508 1507 1506 1505 1503 1501 1499 1497 1494 1492 1489 1486 1483 1480 1476
1435 1438 1442 1446 1449 1453 1456 1460 1465 1471 1474 1476 1480 1485 1488 1490 1492 1494 1496 1499 1501 1502 1503 1504 1504 1505 1505 1505 1505 1504 1503 1501 1500 1498 1496 1493 1491 1488 1486 1483 1479 1476 1472
1429 1433 1436 1440 1443 1447 1451 1454 1460 1465 1469 1472 1476 1480 1482 1485 1487 1490 1491 1494 1496 1498 1499 1500 1500 1501 1501 1501 1501 1501 1500 1498 1496 1494 1492 1490 1487 1485 1482 1479 1476 1472 1469
1423 1426 1429 1434 1437 1441 1446 1450 1454 1459 1463 1467 1470 1475 1478 1481 1484 1487 1489 1490 1493 1494 1495 1496 1497 1497 1498 1498 1498 1497 1496 1494 1493 1491 1488 1486 1484 1481 1478 1475 1472 1469 1465
1416 1421 1424 1429 1432 1435 1439 1444 1449 1453 1458 1462 1466 1470 1474 1477 1481 1483 1485 1487 1489 1490 1491 1491 1492 1493 1494 1494 1494 1493 1492 1491 1489 1487 1485 1483 1480 1477 1474 1471 1468 1465 1462
1411 1415 1419 1422 1426 1430 1434 1438 1442 1447 1452 1457 1461 1465 1469 1473 1476 1479 1482 1484 1486 1486 1486 1487 1488 1489 1490 1490 1490 1489 1488 1487 1485 1483 1481 1479 1476 1474 1471 1468 1465 1462 1459
1406 1409 1413 1417 1421 1425 1429 1433 1437 1441 1446 1451 1456 1460 1464 1468 1471 1474 1477 1479 1481 1483 1483 1483 1484 1485 1486 1486 1486 1485 1484 1483 1481 1479 1477 1475 1473 1470 1467 1464 1462 1458 1455
1400 1404 1407 1411 1414 1418 1423 1427 1431 1435 1440 1445 1450 1454 1458 1463 1466 1469 1472 1474 1477 1478 1479 1479 1480 1481 1482 1482 1482 1481 1480 1479 1477 1475 1473 1471 1469 1466 1464 1461 1458 1455 1452
1394 1398 1402 1405 1408 1412 1417 1421 1425 1430 1434 1439 1443 1448 1452 1457 1461 1464 1467 1469 1472 1473 1475 1475 1476 1477 1478 1478 1478 1477 1476 1475 1473 1471 1469 1467 1465 1463 1460 1457 1455 1452 1449
1389 1393 1396 1399 1402 1406 1411 1416 1420 1424 1429 1434 1438 1442 1446 1451 1455 1458 1461 1464 1466 1469 1470 1471 1472 1473 1473 1473 1473 1472 1472 1471 1469 1467 1466 1464 1462 1459 1456 1454 1451 1449 1446
1383 1386 1390 1393 1397 1400 1405 1410 1415 1419 1423 1428 1433 1436 1441 1445 1449 1452 1456 1459 1461 1464 1465 1466 1467 1468 1468 1468 1468 1468 1467 1466 1465 1464 1462 1460 1458 1456 1453 1451 1448 1445 1443
1378 1382 1385 1388 1391 1395 1399 1404 1409 1413 1418 1422 1427 1431 1435 1440 1443 1447 1450 1453 1456 1458 1460 1461 1462 1463 1463 1463 1463 1463 1463 1462 1461 1460 1458 1456 1454 1452 1450 1447 1445 1443 1440
1375 1377 1380 1383 1386 1390 1395 1399 1404 1408 1412 1417 1421 1426 1430 1435 1438 1442 1445 1448 1451 1453 1454 1456 1456 1457 1457 1458 1458 1459 1459 1457 1456 1456 1454 1452 1451 1448 1446 1444 1442 1440 1437
1370 1373 1375 1379 1382 1386 1390 1394 1399 1403 1407 1411 1416 1421 1425 1429 1433 1436 1440 1443 1445 1447 1449 1451 1452 1452 1453 1454 1454 1454 1454 1454 1453 1451 1450 1448 1447 1445 1443 1441 1439 1437 1435
1368 1369 1371 1373 1377 1381 1385 1389 1394 1399 1402 1407 1411 1415 1419 1423 1427 1431 1434 1437 1439 1441 1444 1446 1447 1448 1449 1450 1450 1451 1451 1450 1449 1448 1447 1445 1443 1442 1441 1439 1437 1435 1432
1364 1366 1368 1370 1372 1376 1380 1384 1389 1393 1397 1401 1406 1410 1414 1418 1421 1425 1429 1431 1434 1436 1439 1441 1442 1443 1445 1446 1446 1446 1446 1446 1445 1444 1444 1443 1440 1438 1437 1436 1434 1432 1430
1361 1362 1364 1366 1368 1371 1375 1380 1385 1388 1392 1396 1400 1405 1409 1413 1416 1420 1423 1426 1428 1430 1433 1435 1437 1439 1440 1441 1442 1442 1443 1442 1442 1441 1441 1440 1438 1437 1434 1433 1432 1430 1428